Time,TemperatureF,DewpointF,PressureIn,WindDirection,WindDirectionDegrees,WindSpeedMPH,WindSpeedGustMPH,Humidity,HourlyPrecipIn,Conditions,Clouds,dailyrainin,SoftwareType,DateUTC
2013-05-07 00:03:00,51.0,49.0,30.05,ESE,120,0.0,-999.0,94,-99.99,,,-99.99,,2013-05-07 04:03:00,
2013-05-07 00:12:00,51.0,49.0,30.05,ESE,120,0.0,-999.0,94,-99.99,,,-99.99,,2013-05-07 04:12:00,
2013-05-07 00:23:00,51.0,49.0,30.05,ENE,59,0.0,-999.0,93,-99.99,,,-99.99,,2013-05-07 04:23:00,
2013-05-07 00:33:00,51.0,49.0,30.05,NE,53,0.0,-999.0,93,-99.99,,,-99.99,,2013-05-07 04:33:00,
2013-05-07 00:42:00,51.0,49.0,30.05,NE,53,0.0,-999.0,93,-99.99,,,-99.99,,2013-05-07 04:42:00,
2013-05-07 00:53:00,51.0,49.0,30.04,East,84,1.0,-999.0,92,-99.99,,,-99.99,,2013-05-07 04:53:00,
2013-05-07 01:02:00,51.0,49.0,30.04,East,97,1.0,-999.0,92,-99.99,,,-99.99,,2013-05-07 05:02:00,
2013-05-07 01:12:00,51.0,49.0,30.04,East,97,1.0,-999.0,92,-99.99,,,-99.99,,2013-05-07 05:12:00,
2013-05-07 01:22:00,51.0,48.0,30.03,ENE,78,1.0,-999.0,91,-99.99,,,-99.99,,2013-05-07 05:22:00,
2013-05-07 01:32:00,51.0,49.0,30.03,ESE,102,1.0,-999.0,92,-99.99,,,-99.99,,2013-05-07 05:32:00,
2013-05-07 01:42:00,51.0,49.0,30.03,ESE,102,1.0,-999.0,92,-99.99,,,-99.99,,2013-05-07 05:42:00,
2013-05-07 01:52:00,51.0,49.0,30.02,ESE,120,1.0,-999.0,92,-99.99,,,-99.99,,2013-05-07 05:52:00,
2013-05-07 02:02:00,51.0,49.0,30.02,East,86,0.0,-999.0,92,-99.99,,,-99.99,,2013-05-07 06:02:00,
2013-05-07 02:12:00,51.0,49.0,30.02,East,86,0.0,-999.0,92,-99.99,,,-99.99,,2013-05-07 06:12:00,
2013-05-07 02:22:00,51.0,49.0,30.02,ESE,109,0.0,-999.0,93,-99.99,,,-99.99,,2013-05-07 06:22:00,
2013-05-07 02:32:00,51.0,49.0,30.01,ENE,66,0.0,-999.0,93,-99.99,,,-99.99,,2013-05-07 06:32:00,
2013-05-07 02:42:00,51.0,49.0,30.01,ENE,66,0.0,-999.0,93,-99.99,,,-99.99,,2013-05-07 06:42:00,
2013-05-07 02:52:00,51.0,49.0,30.01,East,87,0.0,-999.0,94,-99.99,,,-99.99,,2013-05-07 06:52:00,
2013-05-07 03:02:00,51.0,49.0,30.01,ENE,69,0.0,-999.0,94,-99.99,,,-99.99,,2013-05-07 07:02:00,
2013-05-07 03:11:00,51.0,49.0,30.01,ENE,69,0.0,-999.0,94,-99.99,,,-99.99,,2013-05-07 07:11:00,
2013-05-07 03:22:00,51.0,49.0,30.01,ENE,76,0.0,-999.0,94,-99.99,,,-99.99,,2013-05-07 07:22:00,
2013-05-07 03:32:00,51.0,50.0,30.00,NE,50,1.0,-999.0,95,-99.99,,,-99.99,,2013-05-07 07:32:00,
2013-05-07 03:42:00,51.0,50.0,30.00,NE,50,1.0,-999.0,95,-99.99,,,-99.99,,2013-05-07 07:42:00,
2013-05-07 03:52:00,51.0,50.0,30.01,East,87,0.0,-999.0,95,-99.99,,,-99.99,,2013-05-07 07:52:00,
2013-05-07 04:02:00,51.0,50.0,30.01,ENE,69,1.0,-999.0,95,-99.99,,,-99.99,,2013-05-07 08:02:00,
2013-05-07 04:11:00,51.0,50.0,30.01,ENE,69,1.0,-999.0,95,-99.99,,,-99.99,,2013-05-07 08:11:00,
2013-05-07 04:22:00,51.0,50.0,30.01,ENE,77,1.0,-999.0,95,-99.99,,,-99.99,,2013-05-07 08:22:00,
2013-05-07 04:32:00,51.0,50.0,30.01,East,88,0.0,-999.0,95,-99.99,,,-99.99,,2013-05-07 08:32:00,
2013-05-07 04:42:00,51.0,50.0,30.01,East,88,0.0,-999.0,95,-99.99,,,-99.99,,2013-05-07 08:42:00,
2013-05-07 04:52:00,51.0,50.0,30.01,ENE,57,0.0,-999.0,96,-99.99,,,-99.99,,2013-05-07 08:52:00,
2013-05-07 05:01:00,51.0,50.0,30.01,ESE,105,0.0,-999.0,96,-99.99,,,-99.99,,2013-05-07 09:01:00,
2013-05-07 05:11:00,51.0,50.0,30.01,ESE,105,0.0,-999.0,96,-99.99,,,-99.99,,2013-05-07 09:11:00,
2013-05-07 05:22:00,51.0,50.0,30.01,NE,36,1.0,-999.0,96,-99.99,,,-99.99,,2013-05-07 09:22:00,
2013-05-07 05:33:00,51.0,50.0,30.01,East,88,1.0,-999.0,96,-99.99,,,-99.99,,2013-05-07 09:33:00,
2013-05-07 05:43:00,51.0,50.0,30.01,East,88,1.0,-999.0,96,-99.99,,,-99.99,,2013-05-07 09:43:00,
2013-05-07 05:52:00,51.0,50.0,30.01,ENE,59,1.0,-999.0,96,-99.99,,,-99.99,,2013-05-07 09:52:00,
2013-05-07 06:03:00,51.0,50.0,30.00,North,351,1.0,-999.0,96,-99.99,,,-99.99,,2013-05-07 10:03:00,
2013-05-07 06:12:00,51.0,50.0,30.00,North,351,1.0,-999.0,96,-99.99,,,-99.99,,2013-05-07 10:12:00,
2013-05-07 06:23:00,51.0,50.0,30.00,East,95,1.0,-999.0,96,-99.99,,,-99.99,,2013-05-07 10:23:00,
2013-05-07 06:32:00,51.0,50.0,30.01,East,86,0.0,-999.0,96,-99.99,,,-99.99,,2013-05-07 10:32:00,
2013-05-07 06:42:00,51.0,50.0,30.01,East,82,1.0,-999.0,96,-99.99,,,-99.99,,2013-05-07 10:42:00,
2013-05-07 06:52:00,51.0,50.0,30.01,East,82,1.0,-999.0,96,-99.99,,,-99.99,,2013-05-07 10:52:00,
2013-05-07 07:02:00,51.0,50.0,30.01,East,81,1.0,-999.0,96,-99.99,,,-99.99,,2013-05-07 11:02:00,
2013-05-07 07:12:00,51.0,50.0,30.01,East,81,1.0,-999.0,96,-99.99,,,-99.99,,2013-05-07 11:12:00,
2013-05-07 07:22:00,51.0,50.0,30.02,NE,53,0.0,-999.0,97,-99.99,,,-99.99,,2013-05-07 11:22:00,
2013-05-07 07:32:00,52.0,51.0,30.02,ENE,63,0.0,-999.0,96,-99.99,,,-99.99,,2013-05-07 11:32:00,
2013-05-07 07:42:00,52.0,51.0,30.02,ENE,63,0.0,-999.0,96,-99.99,,,-99.99,,2013-05-07 11:42:00,
2013-05-07 07:52:00,52.0,51.0,30.02,East,92,1.0,-999.0,97,-99.99,,,-99.99,,2013-05-07 11:52:00,
2013-05-07 08:02:00,52.0,51.0,30.02,East,101,1.0,-999.0,96,-99.99,,,-99.99,,2013-05-07 12:02:00,
2013-05-07 08:11:00,52.0,51.0,30.02,East,101,1.0,-999.0,96,-99.99,,,-99.99,,2013-05-07 12:11:00,
2013-05-07 08:22:00,53.0,52.0,30.02,East,79,1.0,-999.0,97,-99.99,,,-99.99,,2013-05-07 12:22:00,
2013-05-07 08:32:00,53.0,52.0,30.03,NW,321,2.0,-999.0,97,-99.99,,,-99.99,,2013-05-07 12:32:00,
2013-05-07 08:42:00,53.0,52.0,30.03,NW,321,2.0,-999.0,97,-99.99,,,-99.99,,2013-05-07 12:42:00,
2013-05-07 08:52:00,53.0,52.0,30.03,NE,38,1.0,-999.0,97,-99.99,,,-99.99,,2013-05-07 12:52:00,
2013-05-07 09:02:00,53.0,52.0,30.03,East,95,2.0,-999.0,97,-99.99,,,-99.99,,2013-05-07 13:02:00,
2013-05-07 09:11:00,53.0,52.0,30.03,East,95,2.0,-999.0,97,-99.99,,,-99.99,,2013-05-07 13:11:00,
2013-05-07 09:22:00,54.0,53.0,30.03,East,99,2.0,-999.0,96,-99.99,,,-99.99,,2013-05-07 13:22:00,
2013-05-07 09:32:00,54.0,53.0,30.03,ENE,57,2.0,-999.0,96,-99.99,,,-99.99,,2013-05-07 13:32:00,
2013-05-07 09:42:00,54.0,53.0,30.03,ENE,57,2.0,-999.0,96,-99.99,,,-99.99,,2013-05-07 13:42:00,
2013-05-07 09:52:00,54.0,53.0,30.04,East,84,2.0,-999.0,96,-99.99,,,-99.99,,2013-05-07 13:52:00,
2013-05-07 10:02:00,55.0,54.0,30.03,SE,134,3.0,-999.0,95,-99.99,,,-99.99,,2013-05-07 14:02:00,
2013-05-07 10:11:00,55.0,54.0,30.03,SE,134,3.0,-999.0,95,-99.99,,,-99.99,,2013-05-07 14:11:00,
2013-05-07 10:21:00,56.0,54.0,30.04,North,351,3.0,-999.0,93,-99.99,,,-99.99,,2013-05-07 14:21:00,
2013-05-07 10:32:00,57.0,54.0,30.04,East,87,2.0,-999.0,91,-99.99,,,-99.99,,2013-05-07 14:32:00,
2013-05-07 10:42:00,57.0,54.0,30.04,East,87,2.0,-999.0,91,-99.99,,,-99.99,,2013-05-07 14:42:00,
2013-05-07 10:52:00,58.0,55.0,30.04,ESE,115,2.0,-999.0,91,-99.99,,,-99.99,,2013-05-07 14:52:00,
2013-05-07 11:01:00,59.0,55.0,30.04,East,92,4.0,-999.0,87,-99.99,,,-99.99,,2013-05-07 15:01:00,
2013-05-07 11:12:00,59.0,55.0,30.04,East,92,4.0,-999.0,87,-99.99,,,-99.99,,2013-05-07 15:12:00,
2013-05-07 11:21:00,61.0,56.0,30.03,North,350,3.0,-999.0,85,-99.99,,,-99.99,,2013-05-07 15:21:00,
2013-05-07 11:33:00,62.0,57.0,30.03,ENE,61,2.0,-999.0,83,-99.99,,,-99.99,,2013-05-07 15:33:00,
2013-05-07 11:42:00,62.0,57.0,30.03,ENE,61,2.0,-999.0,83,-99.99,,,-99.99,,2013-05-07 15:42:00,
2013-05-07 11:53:00,62.0,57.0,30.03,ENE,61,2.0,-999.0,83,-99.99,,,-99.99,,2013-05-07 15:53:00,
2013-05-07 12:03:00,65.0,58.0,30.03,North,5,4.0,-999.0,78,-99.99,,,-99.99,,2013-05-07 16:03:00,
2013-05-07 12:12:00,65.0,58.0,30.03,North,5,4.0,-999.0,78,-99.99,,,-99.99,,2013-05-07 16:12:00,
2013-05-07 12:22:00,65.0,57.0,30.02,SSE,153,3.0,-999.0,75,-99.99,,,-99.99,,2013-05-07 16:22:00,
2013-05-07 12:32:00,66.0,57.0,30.03,South,178,4.0,-999.0,74,-99.99,,,-99.99,,2013-05-07 16:32:00,
2013-05-07 12:42:00,66.0,57.0,30.03,South,178,4.0,-999.0,74,-99.99,,,-99.99,,2013-05-07 16:42:00,
2013-05-07 12:52:00,66.0,57.0,30.03,South,178,4.0,-999.0,74,-99.99,,,-99.99,,2013-05-07 16:52:00,
2013-05-07 13:01:00,65.0,57.0,30.02,SSE,152,4.0,-999.0,75,-99.99,,,-99.99,,2013-05-07 17:01:00,
2013-05-07 13:12:00,65.0,57.0,30.02,SSE,152,4.0,-999.0,75,-99.99,,,-99.99,,2013-05-07 17:12:00,
2013-05-07 13:21:00,65.0,58.0,30.02,SE,128,4.0,-999.0,77,-99.99,,,-99.99,,2013-05-07 17:21:00,
2013-05-07 13:32:00,65.0,57.0,30.01,ESE,115,7.0,-999.0,76,-99.99,,,-99.99,,2013-05-07 17:32:00,
2013-05-07 13:41:00,65.0,57.0,30.01,ESE,115,7.0,-999.0,76,-99.99,,,-99.99,,2013-05-07 17:41:00,
2013-05-07 13:53:00,65.0,57.0,30.01,ESE,105,3.0,-999.0,76,-99.99,,,-99.99,,2013-05-07 17:53:00,
2013-05-07 14:01:00,65.0,59.0,30.01,SSE,148,4.0,-999.0,81,-99.99,,,-99.99,,2013-05-07 18:01:00,
2013-05-07 14:11:00,65.0,59.0,30.01,SSE,148,4.0,-999.0,81,-99.99,,,-99.99,,2013-05-07 18:11:00,
2013-05-07 14:21:00,66.0,59.0,30.01,East,90,4.0,-999.0,77,-99.99,,,-99.99,,2013-05-07 18:21:00,
2013-05-07 14:31:00,66.0,58.0,30.01,East,90,5.0,-999.0,75,-99.99,,,-99.99,,2013-05-07 18:31:00,
2013-05-07 14:42:00,66.0,58.0,30.01,East,90,5.0,-999.0,75,-99.99,,,-99.99,,2013-05-07 18:42:00,
2013-05-07 14:52:00,67.0,59.0,30.00,ESE,122,5.0,-999.0,75,-99.99,,,-99.99,,2013-05-07 18:52:00,
2013-05-07 15:02:00,67.0,59.0,30.00,ENE,61,3.0,-999.0,75,-99.99,,,-99.99,,2013-05-07 19:02:00,
2013-05-07 15:11:00,67.0,59.0,30.00,ENE,61,3.0,-999.0,75,-99.99,,,-99.99,,2013-05-07 19:11:00,
2013-05-07 15:21:00,66.0,58.0,29.99,East,87,3.0,-999.0,75,-99.99,,,-99.99,,2013-05-07 19:21:00,
2013-05-07 15:32:00,64.0,57.0,29.99,NNE,32,1.0,-999.0,77,-99.99,,,-99.99,,2013-05-07 19:32:00,
2013-05-07 15:42:00,64.0,57.0,29.99,NNE,32,1.0,-999.0,77,-99.99,,,-99.99,,2013-05-07 19:42:00,
2013-05-07 15:52:00,63.0,56.0,29.99,ENE,71,3.0,-999.0,78,-99.99,,,-99.99,,2013-05-07 19:52:00,
2013-05-07 16:02:00,62.0,56.0,29.99,NNE,29,2.0,-999.0,81,-99.99,,,-99.99,,2013-05-07 20:02:00,
2013-05-07 16:12:00,62.0,56.0,29.99,NNE,29,2.0,-999.0,81,-99.99,,,-99.99,,2013-05-07 20:12:00,
2013-05-07 16:22:00,62.0,56.0,29.98,East,79,1.0,-999.0,81,-99.99,,,-99.99,,2013-05-07 20:22:00,
2013-05-07 16:32:00,62.0,56.0,29.98,ESE,109,1.0,-999.0,82,-99.99,,,-99.99,,2013-05-07 20:32:00,
2013-05-07 16:42:00,62.0,56.0,29.98,ESE,109,1.0,-999.0,82,-99.99,,,-99.99,,2013-05-07 20:42:00,
2013-05-07 16:52:00,62.0,57.0,29.98,ESE,111,2.0,-999.0,83,-99.99,,,-99.99,,2013-05-07 20:52:00,
2013-05-07 17:01:00,63.0,57.0,29.98,NNE,29,2.0,-999.0,82,-99.99,,,-99.99,,2013-05-07 21:01:00,
2013-05-07 17:11:00,63.0,57.0,29.98,NNE,29,2.0,-999.0,82,-99.99,,,-99.99,,2013-05-07 21:11:00,
2013-05-07 17:22:00,63.0,57.0,29.97,ESE,102,2.0,-999.0,82,-99.99,,,-99.99,,2013-05-07 21:22:00,
2013-05-07 17:33:00,63.0,57.0,29.97,ESE,117,4.0,-999.0,81,-99.99,,,-99.99,,2013-05-07 21:33:00,
2013-05-07 17:42:00,63.0,57.0,29.97,ESE,117,4.0,-999.0,81,-99.99,,,-99.99,,2013-05-07 21:42:00,
2013-05-07 17:53:00,62.0,56.0,29.97,East,92,3.0,-999.0,82,-99.99,,,-99.99,,2013-05-07 21:53:00,
2013-05-07 18:02:00,62.0,57.0,29.97,ENE,73,2.0,-999.0,84,-99.99,,,-99.99,,2013-05-07 22:02:00,
2013-05-07 18:13:00,62.0,57.0,29.97,ENE,73,2.0,-999.0,84,-99.99,,,-99.99,,2013-05-07 22:13:00,
2013-05-07 18:22:00,61.0,56.0,29.97,NE,38,2.0,-999.0,84,-99.99,,,-99.99,,2013-05-07 22:22:00,
2013-05-07 18:33:00,61.0,56.0,29.96,NE,51,1.0,-999.0,85,-99.99,,,-99.99,,2013-05-07 22:33:00,
2013-05-07 18:42:00,61.0,56.0,29.96,NE,51,1.0,-999.0,85,-99.99,,,-99.99,,2013-05-07 22:42:00,
2013-05-07 18:52:00,61.0,56.0,29.96,NE,51,1.0,-999.0,85,-99.99,,,-99.99,,2013-05-07 22:52:00,
2013-05-07 19:02:00,61.0,57.0,29.97,East,92,2.0,-999.0,86,-99.99,,,-99.99,,2013-05-07 23:02:00,
2013-05-07 19:12:00,61.0,57.0,29.97,East,92,2.0,-999.0,86,-99.99,,,-99.99,,2013-05-07 23:12:00,
2013-05-07 19:21:00,60.0,56.0,29.97,ENE,70,2.0,-999.0,87,-99.99,,,-99.99,,2013-05-07 23:21:00,
2013-05-07 19:32:00,60.0,56.0,29.97,East,88,1.0,-999.0,87,-99.99,,,-99.99,,2013-05-07 23:32:00,
2013-05-07 19:42:00,60.0,56.0,29.97,East,88,1.0,-999.0,87,-99.99,,,-99.99,,2013-05-07 23:42:00,
2013-05-07 19:52:00,59.0,55.0,29.97,East,84,1.0,-999.0,88,-99.99,,,-99.99,,2013-05-07 23:52:00,
2013-05-07 20:02:00,59.0,56.0,29.97,East,88,1.0,-999.0,89,-99.99,,,-99.99,,2013-05-08 00:02:00,
2013-05-07 20:12:00,59.0,56.0,29.97,East,88,1.0,-999.0,89,-99.99,,,-99.99,,2013-05-08 00:12:00,
2013-05-07 20:22:00,58.0,55.0,29.97,East,98,1.0,-999.0,89,-99.99,,,-99.99,,2013-05-08 00:22:00,
2013-05-07 20:32:00,58.0,55.0,29.97,ESE,111,1.0,-999.0,90,-99.99,,,-99.99,,2013-05-08 00:32:00,
2013-05-07 20:42:00,58.0,55.0,29.97,ESE,111,1.0,-999.0,90,-99.99,,,-99.99,,2013-05-08 00:42:00,
2013-05-07 20:51:00,58.0,55.0,29.97,NE,49,1.0,-999.0,91,-99.99,,,-99.99,,2013-05-08 00:51:00,
2013-05-07 21:02:00,58.0,55.0,29.98,ENE,72,2.0,-999.0,91,-99.99,,,-99.99,,2013-05-08 01:02:00,
2013-05-07 21:11:00,58.0,55.0,29.98,ENE,72,2.0,-999.0,91,-99.99,,,-99.99,,2013-05-08 01:11:00,
2013-05-07 21:22:00,58.0,56.0,29.98,ESE,109,1.0,-999.0,92,-99.99,,,-99.99,,2013-05-08 01:22:00,
2013-05-07 21:32:00,58.0,56.0,29.98,ESE,102,1.0,-999.0,92,-99.99,,,-99.99,,2013-05-08 01:32:00,
2013-05-07 21:42:00,58.0,56.0,29.98,ESE,102,1.0,-999.0,92,-99.99,,,-99.99,,2013-05-08 01:42:00,
2013-05-07 21:52:00,58.0,56.0,29.98,SE,126,2.0,-999.0,92,-99.99,,,-99.99,,2013-05-08 01:52:00,
2013-05-07 22:02:00,58.0,56.0,29.98,ENE,66,1.0,-999.0,92,-99.99,,,-99.99,,2013-05-08 02:02:00,
2013-05-07 22:12:00,58.0,56.0,29.98,ENE,66,1.0,-999.0,92,-99.99,,,-99.99,,2013-05-08 02:12:00,
2013-05-07 22:22:00,58.0,56.0,29.98,East,83,0.0,-999.0,92,-99.99,,,-99.99,,2013-05-08 02:22:00,
2013-05-07 22:32:00,58.0,56.0,29.98,East,101,1.0,-999.0,92,-99.99,,,-99.99,,2013-05-08 02:32:00,
2013-05-07 22:42:00,58.0,56.0,29.98,East,101,1.0,-999.0,92,-99.99,,,-99.99,,2013-05-08 02:42:00,
2013-05-07 22:52:00,58.0,55.0,29.98,ESE,102,2.0,-999.0,91,-99.99,,,-99.99,,2013-05-08 02:52:00,
2013-05-07 23:02:00,58.0,55.0,29.97,North,355,1.0,-999.0,91,-99.99,,,-99.99,,2013-05-08 03:02:00,
2013-05-07 23:11:00,58.0,55.0,29.97,North,355,1.0,-999.0,91,-99.99,,,-99.99,,2013-05-08 03:11:00,
2013-05-07 23:22:00,58.0,56.0,29.97,East,84,1.0,-999.0,92,-99.99,,,-99.99,,2013-05-08 03:22:00,
2013-05-07 23:33:00,58.0,56.0,29.96,East,85,0.0,-999.0,93,-99.99,,,-99.99,,2013-05-08 03:33:00,
2013-05-07 23:43:00,58.0,56.0,29.96,East,85,0.0,-999.0,93,-99.99,,,-99.99,,2013-05-08 03:43:00,
2013-05-07 23:52:00,58.0,56.0,29.96,ENE,76,1.0,-999.0,93,-99.99,,,-99.99,,2013-05-08 03:52:00,